1491663600.09,36991,11.75,73474.5,-5.03,-5.77,-5.77,0,*52
1491663601.36,36992,11.75,73492.5,-5.03,-5.77,-5.69,0,*5E
1491663602.63,36993,11.75,73468.8,-5.03,-5.77,-5.69,0,*5F
1491663603.88,36994,11.75,73480.8,-5.05,-5.81,-5.73,0,*5C
1491663605.12,36995,11.69,73514.3,-5.05,-5.73,-5.73,0,*50
1491663606.36,36996,11.75,73494.5,-5.05,-5.73,-5.73,0,*53
1491663607.63,36997,11.75,73484.8,-5.07,-5.81,-5.73,0,*5D
1491663608.87,36998,11.75,73496.0,-5.05,-5.81,-5.73,0,*50
1491663610.12,36999,11.75,73496.0,-5.05,-5.69,-5.73,0,*57
1491663611.36,37000,11.75,73488.8,-5.05,-5.73,-5.73,0,*54
1491663612.63,37001,11.69,73490.8,-5.03,-5.77,-5.69,0,*5C
1491663613.87,37002,11.69,73484.8,-5.05,-5.73,-5.73,0,*56
1491663615.14,37003,11.75,73478.0,-5.03,-5.69,-5.65,0,*5D
1491663616.42,37004,11.75,73442.5,-5.03,-5.69,-5.69,0,*56
1491663617.69,37005,11.75,73444.3,-5.03,-5.69,-5.69,0,*57
1491663618.96,37006,11.69,73430.5,-5.03,-5.69,-5.65,0,*58
1491663620.21,37007,11.75,73446.5,-5.05,-5.69,-5.73,0,*58
1491663621.48,37008,11.75,73458.3,-5.03,-5.65,-5.69,0,*56
1491663622.75,37009,11.75,73442.5,-5.03,-5.65,-5.69,0,*57
1491663624.02,37010,11.75,73458.8,-5.03,-5.69,-5.69,0,*53
1491663625.29,37011,11.75,73462.0,-5.03,-5.69,-5.77,0,*5D
1491663626.56,37012,11.69,73418.3,-5.03,-5.65,-5.69,0,*5D
1491663627.83,37013,11.75,73460.5,-5.03,-5.69,-5.69,0,*50
1491663629.1,37014,11.69,73526.5,-5.03,-5.69,-5.65,0,*5B
1491663630.37,37015,11.69,73500.0,-5.03,-5.69,-5.69,0,*56
1491663631.64,37016,11.69,73490.5,-5.03,-5.65,-5.65,0,*55
1491663632.92,37017,11.75,73488.3,-5.03,-5.69,-5.69,0,*54
1491663634.19,37018,11.75,73482.0,-5.03,-5.65,-5.69,0,*57
1491663635.46,37019,11.69,73482.3,-5.03,-5.65,-5.65,0,*5A
1491663636.73,37020,11.69,73486.3,-5.03,-5.69,-5.65,0,*5C
1491663637.97,37021,11.75,73484.8,-5.05,-5.73,-5.69,0,*5C
1491663639.25,37022,11.75,73478.5,-5.03,-5.69,-5.65,0,*5E
1491663640.52,37023,11.75,73480.8,-5.03,-5.69,-5.65,0,*5F
1491663641.79,37024,11.75,73482.3,-5.03,-5.65,-5.65,0,*54
1491663643.06,37025,11.75,73474.8,-5.03,-5.65,-5.65,0,*55
1491663644.33,37026,11.75,73458.5,-5.03,-5.65,-5.65,0,*56
1491663645.6,37027,11.75,73460.5,-5.03,-5.69,-5.65,0,*5B
1491663646.84,37028,11.75,73456.0,-5.01,-5.69,-5.65,0,*56
1491663648.12,37029,11.69,73474.8,-5.03,-5.69,-5.65,0,*55
1491663649.39,37030,11.75,73462.5,-5.03,-5.69,-5.69,0,*51
1491663650.66,37031,11.75,73472.3,-5.03,-5.69,-5.65,0,*5C
1491663651.93,37032,11.69,73452.8,-5.03,-5.69,-5.65,0,*5F
1491663653.2,37033,11.75,73464.0,-5.03,-5.65,-5.65,0,*52
1491663654.47,37034,11.75,73470.5,-5.03,-5.65,-5.65,0,*55
1491663655.74,37035,11.75,73476.0,-5.03,-5.69,-5.69,0,*54
1491663657.01,37036,11.75,73478.5,-5.03,-5.65,-5.69,0,*5B
1491663658.28,37037,11.75,73476.0,-5.03,-5.65,-5.65,0,*56
1491663659.55,37038,11.75,73456.3,-5.03,-5.65,-5.65,0,*59
1491663660.82,37039,11.75,73460.5,-5.03,-5.65,-5.65,0,*58
1491663662.1,37040,11.75,73448.0,-5.03,-5.65,-5.65,0,*56
1491663663.37,37041,11.75,73428.3,-5.03,-5.69,-5.65,0,*5B
1491663664.64,37042,11.75,73414.8,-5.03,-5.65,-5.69,0,*58
1491663665.91,37043,11.75,73426.5,-5.03,-5.69,-5.65,0,*59
1491663667.18,37044,11.75,73434.8,-5.03,-5.65,-5.69,0,*5E
1491663668.45,37045,11.75,73446.5,-5.03,-5.69,-5.65,0,*5F
1491663669.7,37046,11.75,73474.0,-5.01,-5.65,-5.65,0,*52
1491663670.97,37047,11.75,73488.3,-5.03,-5.65,-5.69,0,*5D
1491663672.24,37048,11.69,73494.0,-5.03,-5.65,-5.65,0,*5E
1491663673.48,37049,11.75,73476.0,-5.01,-5.65,-5.69,0,*51
1491663674.75,37050,11.75,73486.5,-5.03,-5.69,-5.65,0,*5B
1491663676.03,37051,11.75,73458.0,-5.03,-5.65,-5.65,0,*56
1491663677.25,37052,11.75,73468.3,-5.01,-5.69,-5.55,0,*58
1491663678.52,37053,11.75,73474.8,-5.03,-5.65,-5.65,0,*54
1491663679.77,37054,11.75,73468.0,-5.01,-5.65,-5.65,0,*51
1491663681.02,37055,11.75,73436.8,-5.03,-5.55,-5.65,0,*51
1491663682.26,37056,11.75,73408.8,-5.01,-5.65,-5.65,0,*53
1491663683.51,37057,11.75,73446.3,-5.01,-5.65,-5.65,0,*52
1491663684.78,37058,11.75,73432.0,-5.03,-5.65,-5.65,0,*5F
1491663686.05,37059,11.75,73422.8,-5.03,-5.65,-5.65,0,*5E
1491663687.28,37060,11.75,73492.3,-5.03,-5.55,-5.55,0,*54
1491663688.51,37061,11.75,73468.5,-5.03,-5.55,-5.55,0,*55
1491663689.72,37062,11.75,73478.0,-5.01,-5.55,-5.55,0,*54
1491663690.95,37063,11.75,73474.3,-5.03,-5.55,-5.55,0,*57
1491663692.22,37064,11.75,73474.0,-5.03,-5.65,-5.65,0,*50
1491663693.47,37065,11.75,73460.0,-5.03,-5.65,-5.55,0,*52
1491663694.7,37066,11.69,73444.0,-5.01,-5.69,-5.55,0,*5F
1491663695.97,37067,11.69,73458.5,-5.03,-5.65,-5.65,0,*53
1491663697.22,37068,11.75,73472.5,-5.03,-5.55,-5.65,0,*5F
1491663698.49,37069,11.75,73482.8,-5.03,-5.65,-5.65,0,*5D
1491663699.71,37070,11.69,73474.0,-5.01,-5.55,-5.65,0,*54
1491663700.92,37071,11.75,73490.3,-5.01,-5.55,-5.55,0,*56
1491663702.15,37072,11.69,73492.0,-5.01,-5.65,-5.55,0,*56
1491663703.39,37073,11.75,73494.0,-5.01,-5.65,-5.65,0,*54
1491663704.62,37074,11.75,73482.8,-5.01,-5.65,-5.55,0,*50
1491663705.84,37075,11.75,73486.3,-5.01,-5.65,-5.55,0,*51
1491663707.09,37076,11.69,73506.8,-5.01,-5.65,-5.65,0,*51
1491663708.33,37077,11.75,73490.3,-5.01,-5.65,-5.65,0,*50
1491663709.6,37078,11.75,73498.5,-5.03,-5.69,-5.65,0,*51
1491663710.87,37079,11.75,73514.0,-5.03,-5.65,-5.65,0,*5C
1491663712.14,37080,11.69,73500.3,-5.03,-5.65,-5.69,0,*56
1491663713.37,37081,11.75,73502.5,-5.01,-5.55,-5.65,0,*5A
1491663714.61,37082,11.69,73478.0,-5.01,-5.65,-5.65,0,*5A
1491663715.86,37083,11.69,73520.8,-5.01,-5.69,-5.69,0,*5B
1491663717.1,37084,11.69,73514.8,-5.01,-5.69,-5.69,0,*5C
1491663718.38,37085,11.75,73512.8,-5.03,-5.65,-5.69,0,*53
1491663719.62,37086,11.69,73500.3,-5.01,-5.69,-5.65,0,*52
1491663720.87,37087,11.75,73508.5,-5.01,-5.69,-5.65,0,*53
1491663722.11,37088,11.75,73512.8,-5.01,-5.69,-5.69,0,*50
1491663723.36,37089,11.69,73514.8,-5.01,-5.69,-5.65,0,*5D
1491663724.6,37090,11.75,73512.8,-5.01,-5.69,-5.65,0,*55
1491663725.85,37091,11.75,73508.8,-5.01,-5.65,-5.69,0,*54
1491663727.09,37092,11.75,73510.0,-5.01,-5.69,-5.69,0,*5B
1491663728.34,37093,11.69,73504.8,-5.01,-5.69,-5.69,0,*5A
1491663729.61,37094,11.75,73502.0,-5.03,-5.69,-5.69,0,*5F
1491663730.85,37095,11.75,73496.5,-5.01,-5.65,-5.65,0,*5C
1491663732.13,37096,11.75,73494.0,-5.03,-5.69,-5.65,0,*51
1491663733.4,37097,11.75,73500.8,-5.03,-5.69,-5.65,0,*50
1491663734.67,37098,11.69,73494.5,-5.03,-5.65,-5.65,0,*53
1491663735.91,37099,11.75,73498.8,-5.01,-5.69,-5.77,0,*5F
1491663737.18,37100,11.75,73498.8,-5.03,-5.69,-5.69,0,*53
1491663738.43,37101,11.75,73482.0,-5.01,-5.69,-5.69,0,*50
1491663739.67,37102,11.75,73476.3,-5.01,-5.65,-5.69,0,*5F
1491663740.94,37103,11.69,73478.3,-5.03,-5.69,-5.69,0,*50
1491663742.21,37104,11.69,73478.3,-5.03,-5.69,-5.69,0,*57
1491663743.46,37105,11.75,73476.3,-5.01,-5.69,-5.69,0,*54
1491663744.73,37106,11.75,73508.8,-5.03,-5.69,-5.65,0,*59
1491663746.0,37107,11.75,73488.3,-5.03,-5.69,-5.69,0,*54
1491663747.25,37108,11.69,73490.3,-5.01,-5.69,-5.69,0,*59
1491663748.49,37109,11.75,73514.0,-5.01,-5.69,-5.69,0,*58
1491663749.74,37110,11.75,73526.0,-5.01,-5.69,-5.69,0,*50
1491663750.99,37111,11.69,73502.8,-5.01,-5.69,-5.69,0,*51
1491663752.26,37112,11.69,73492.3,-5.03,-5.69,-5.65,0,*5C
1491663753.5,37113,11.75,73494.0,-5.01,-5.69,-5.69,0,*53
1491663754.77,37114,11.69,73474.8,-5.03,-5.65,-5.69,0,*5A
1491663756.02,37115,11.69,73480.3,-5.01,-5.77,-5.69,0,*5A
1491663757.26,37116,11.75,73472.3,-5.01,-5.69,-5.69,0,*56
1491663758.51,37117,11.75,73454.8,-5.01,-5.69,-5.69,0,*57
1491663759.78,37118,11.69,73460.5,-5.03,-5.77,-5.77,0,*5A
1491663761.02,37119,11.75,73476.0,-5.01,-5.77,-5.77,0,*59
1491663762.26,37120,11.69,73476.5,-5.01,-5.77,-5.77,0,*53
1491663763.53,37121,11.69,73446.5,-5.03,-5.77,-5.77,0,*50
1491663764.8,37122,11.69,73436.0,-5.03,-5.81,-5.69,0,*55
1491663766.05,37123,11.69,73440.0,-5.01,-5.77,-5.69,0,*5F
1491663767.32,37124,11.75,73464.0,-5.03,-5.69,-5.69,0,*55
1491663768.58,37125,11.69,73458.0,-5.03,-5.77,-5.77,0,*54
1491663769.82,37126,11.75,73452.5,-5.01,-5.77,-5.77,0,*55
1491663771.07,37127,11.69,73434.8,-5.01,-5.77,-5.77,0,*54
1491663772.31,37128,11.69,73448.8,-5.01,-5.77,-5.77,0,*5B
1491663773.58,37129,11.75,73474.0,-5.03,-5.77,-5.77,0,*58
1491663774.84,37130,11.69,73470.0,-5.03,-5.77,-5.77,0,*50
1491663776.11,37131,11.75,73460.0,-5.03,-5.81,-5.77,0,*58
1491663777.38,37132,11.75,73506.0,-5.03,-5.77,-5.77,0,*52
1491663778.65,37133,11.69,73480.3,-5.03,-5.77,-5.81,0,*5A
1491663779.92,37134,11.75,73470.0,-5.03,-5.81,-5.77,0,*5D
1491663781.19,37135,11.75,73448.3,-5.03,-5.77,-5.77,0,*55
1491663782.43,37136,11.75,73446.3,-5.01,-5.69,-5.77,0,*5B
1491663783.7,37137,11.69,73464.8,-5.03,-5.81,-5.81,0,*57
1491663784.96,37138,11.69,73460.0,-5.05,-5.85,-5.81,0,*5A
1491663786.22,37139,11.69,73500.0,-5.03,-5.77,-5.77,0,*59
1491663787.49,37140,11.69,73496.3,-5.03,-5.77,-5.77,0,*57
1491663788.76,37141,11.69,73470.3,-5.03,-5.77,-5.77,0,*56
1491663790.03,37142,11.69,73486.0,-5.03,-5.77,-5.77,0,*55
1491663791.3,37143,11.69,73492.0,-5.03,-5.77,-5.69,0,*5B
1491663792.57,37144,11.69,73474.3,-5.03,-5.81,-5.69,0,*55
1491663793.84,37145,11.69,73466.0,-5.03,-5.77,-5.77,0,*52
1491663795.1,37146,11.69,73458.3,-5.03,-5.69,-5.77,0,*5E
1491663796.37,37147,11.69,73472.5,-5.03,-5.69,-5.77,0,*5F
1491663797.64,37148,11.75,73468.3,-5.03,-5.77,-5.77,0,*5F
1491663798.91,37149,11.69,73450.8,-5.03,-5.81,-5.77,0,*57
1491663800.15,37150,11.69,73444.3,-5.01,-5.77,-5.69,0,*5B
1491663801.42,37151,11.69,73452.8,-5.03,-5.77,-5.69,0,*58
1491663802.69,37152,11.69,73494.0,-5.03,-5.77,-5.69,0,*5B
1491663803.96,37153,11.69,73494.3,-5.03,-5.77,-5.77,0,*55
1491663805.23,37154,11.75,73460.3,-5.03,-5.81,-5.77,0,*5B
1491663806.5,37155,11.69,73440.3,-5.03,-5.77,-5.77,0,*53
1491663807.77,37156,11.69,73426.0,-5.03,-5.77,-5.77,0,*50
1491663809.04,37157,11.69,73430.0,-5.03,-5.77,-5.69,0,*5E
1491663810.31,37158,11.69,73438.8,-5.03,-5.69,-5.69,0,*5E
1491663811.58,37159,11.69,73444.5,-5.03,-5.81,-5.69,0,*59
1491663812.82,37160,11.69,73436.8,-5.05,-5.73,-5.73,0,*53
1491663814.07,37161,11.69,73442.5,-5.05,-5.81,-5.73,0,*5F
1491663815.34,37162,11.69,73450.8,-5.03,-5.69,-5.69,0,*57
1491663816.61,37163,11.75,73480.0,-5.03,-5.77,-5.77,0,*56
1491663817.88,37164,11.69,73504.3,-5.03,-5.77,-5.69,0,*5E
1491663819.15,37165,11.69,73494.8,-5.03,-5.77,-5.69,0,*5F
1491663820.42,37166,11.69,73478.5,-5.03,-5.77,-5.69,0,*5C
1491663821.69,37167,11.69,73486.0,-5.03,-5.77,-5.69,0,*5D
1491663822.96,37168,11.69,73486.3,-5.03,-5.69,-5.69,0,*5D
1491663824.23,37169,11.69,73456.5,-5.03,-5.77,-5.69,0,*53
1491663825.5,37170,11.69,73478.5,-5.03,-5.77,-5.77,0,*54
1491663826.75,37171,11.69,73472.0,-5.05,-5.73,-5.81,0,*5E
1491663828.02,37172,11.69,73472.8,-5.03,-5.69,-5.69,0,*56
1491663829.26,37173,11.69,73470.8,-5.05,-5.73,-5.73,0,*51
1491663830.5,37174,11.75,73464.3,-5.05,-5.73,-5.81,0,*5B
1491663831.74,37175,11.69,73488.5,-5.05,-5.73,-5.73,0,*57
1491663832.98,37176,11.69,73484.0,-5.05,-5.73,-5.73,0,*54
1491663834.23,37177,11.69,73486.0,-5.05,-5.81,-5.73,0,*58
1491663835.47,37178,11.69,73478.8,-5.05,-5.73,-5.73,0,*5A
1491663836.71,37179,11.69,73472.8,-5.05,-5.73,-5.73,0,*5B
1491663837.96,37180,11.69,73490.8,-5.05,-5.81,-5.73,0,*50
1491663839.21,37181,11.69,73492.0,-5.05,-5.81,-5.81,0,*5C
1491663840.45,37182,11.69,73494.5,-5.05,-5.73,-5.73,0,*5F
1491663841.7,37183,11.69,73482.3,-5.05,-5.73,-5.73,0,*5E
1491663842.96,37184,11.69,73492.5,-5.07,-5.73,-5.81,0,*56
1491663844.21,37185,11.69,73490.8,-5.05,-5.81,-5.73,0,*55
1491663845.46,37186,11.69,73492.0,-5.05,-5.85,-5.73,0,*52
1491663846.71,37187,11.69,73490.8,-5.05,-5.85,-5.73,0,*53
1491663847.96,37188,11.75,73494.5,-5.05,-5.81,-5.73,0,*58
1491663849.2,37189,11.69,73494.3,-5.05,-5.73,-5.81,0,*59
1491663850.47,37190,11.69,73480.0,-5.07,-5.73,-5.73,0,*5E
1491663851.71,37191,11.69,73472.3,-5.05,-5.81,-5.73,0,*50
1491663852.96,37192,11.69,73480.5,-5.05,-5.81,-5.73,0,*53
1491663854.21,37193,11.69,73486.3,-5.05,-5.81,-5.81,0,*5F
1491663855.49,37194,11.69,73500.3,-5.07,-5.81,-5.85,0,*5E
1491663856.74,37195,11.69,73486.8,-5.05,-5.81,-5.81,0,*59
1491663858.02,37196,11.69,73478.8,-5.07,-5.85,-5.85,0,*58
1491663859.27,37197,11.69,73490.8,-5.05,-5.81,-5.81,0,*5B
1491663860.53,37198,11.69,73476.5,-5.05,-5.85,-5.85,0,*54
1491663861.78,37199,11.69,73468.3,-5.05,-5.81,-5.81,0,*55
1491663863.04,37200,11.69,73472.8,-5.05,-5.81,-5.81,0,*56
1491663864.29,37201,11.69,73468.0,-5.05,-5.81,-5.85,0,*53
1491663865.56,37202,11.69,73454.5,-5.07,-5.81,-5.81,0,*56
1491663866.82,37203,11.69,73462.8,-5.05,-5.85,-5.81,0,*51
1491663868.07,37204,11.69,73460.5,-5.05,-5.81,-5.81,0,*52
1491663869.34,37205,11.69,73464.3,-5.07,-5.81,-5.81,0,*51
1491663870.6,37206,11.69,73454.5,-5.05,-5.81,-5.85,0,*54
1491663871.85,37207,11.69,73448.5,-5.05,-5.81,-5.85,0,*55
1491663873.11,37208,11.69,73452.5,-5.05,-5.81,-5.85,0,*5A
1491663874.36,37209,11.69,73488.8,-5.05,-5.85,-5.81,0,*5B
1491663875.62,37210,11.69,73494.5,-5.05,-5.81,-5.85,0,*53
1491663876.89,37211,11.69,73486.5,-5.07,-5.81,-5.85,0,*50
1491663878.15,37212,11.69,73486.3,-5.05,-5.81,-5.81,0,*55
1491663879.4,37213,11.69,73486.3,-5.05,-5.81,-5.73,0,*59
1491663880.67,37214,11.69,73490.0,-5.07,-5.81,-5.81,0,*51
1491663881.94,37215,11.69,73480.8,-5.07,-5.81,-5.73,0,*5D
1491663883.18,37216,11.69,73478.8,-5.05,-5.73,-5.85,0,*58
1491663884.43,37217,11.69,73488.3,-5.05,-5.73,-5.73,0,*50
1491663885.68,37218,11.69,73480.5,-5.05,-5.81,-5.81,0,*5F
1491663886.92,37219,11.69,73460.5,-5.05,-5.73,-5.81,0,*53
1491663888.16,37220,11.69,73496.5,-5.05,-5.73,-5.73,0,*54
1491663889.41,37221,11.69,73496.3,-5.05,-5.73,-5.81,0,*58
1491663890.65,37222,11.69,73492.0,-5.05,-5.73,-5.81,0,*5B
1491663891.9,37223,11.69,73506.5,-5.05,-5.73,-5.69,0,*5C
1491663893.14,37224,11.69,73464.8,-5.05,-5.73,-5.73,0,*50
1491663894.41,37225,11.69,73496.0,-5.07,-5.69,-5.73,0,*58
1491663895.65,37226,11.69,73500.5,-5.05,-5.73,-5.69,0,*59
1491663896.9,37227,11.69,73494.0,-5.05,-5.69,-5.69,0,*53
1491663898.15,37228,11.69,73486.8,-5.05,-5.73,-5.69,0,*57
1491663899.39,37229,11.69,73464.3,-5.05,-5.73,-5.73,0,*5D
1491663900.65,37230,11.69,73466.3,-5.07,-5.73,-5.69,0,*5C
1491663901.9,37231,11.69,73490.0,-5.05,-5.73,-5.73,0,*54
1491663903.15,37232,11.69,73482.3,-5.05,-5.81,-5.61,0,*59
1491663904.4,37233,11.69,73482.8,-5.05,-5.73,-5.69,0,*5D
1491663905.64,37234,11.69,73468.5,-5.05,-5.73,-5.73,0,*51
1491663906.88,37235,11.69,73428.0,-5.05,-5.73,-5.69,0,*5B
1491663908.13,37236,11.69,73410.8,-5.05,-5.73,-5.69,0,*58
1491663909.38,37237,11.69,73414.8,-5.05,-5.69,-5.69,0,*52
1491663910.65,37238,11.69,73416.5,-5.07,-5.81,-5.69,0,*59
1491663911.89,37239,11.69,73484.0,-5.05,-5.73,-5.73,0,*5C
1491663913.16,37240,11.69,73508.3,-5.07,-5.69,-5.69,0,*50
1491663914.42,37241,11.69,73520.0,-5.05,-5.69,-5.69,0,*53
1491663915.66,37242,11.69,73496.0,-5.05,-5.73,-5.69,0,*5B
1491663916.93,37243,11.69,73480.3,-5.07,-5.81,-5.69,0,*55
1491663918.18,37244,11.69,73478.3,-5.05,-5.73,-5.69,0,*5D
1491663919.43,37245,11.69,73476.8,-5.05,-5.69,-5.69,0,*57
1491663920.68,37246,11.69,73474.0,-5.05,-5.69,-5.69,0,*54
1491663921.94,37247,11.69,73522.3,-5.07,-5.73,-5.73,0,*57
1491663923.2,37248,11.69,73522.8,-5.07,-5.73,-5.73,0,*58
1491663924.45,37249,11.69,73504.3,-5.05,-5.73,-5.69,0,*50
1491663925.69,37250,11.69,73500.8,-5.05,-5.73,-5.69,0,*58
1491663926.95,37251,11.69,73480.5,-5.05,-5.81,-5.69,0,*54
1491663928.2,37252,11.69,73484.0,-5.05,-5.69,-5.69,0,*51
1491663929.46,37253,11.69,73492.0,-5.07,-5.73,-5.73,0,*52
1491663930.7,37254,11.69,73494.0,-5.05,-5.73,-5.73,0,*57
1491663931.94,37255,11.69,73500.0,-5.05,-5.73,-5.73,0,*56
1491663933.19,37256,11.69,73486.3,-5.05,-5.81,-5.73,0,*58
1491663934.46,37257,11.69,73490.8,-5.07,-5.81,-5.73,0,*5B
1491663935.71,37258,11.69,73490.5,-5.05,-5.81,-5.81,0,*5B
1491663936.96,37259,11.69,73486.0,-5.05,-5.81,-5.73,0,*57
1491663938.21,37260,11.69,73498.5,-5.05,-5.81,-5.73,0,*5D
1491663939.47,37261,11.69,73500.3,-5.07,-5.73,-5.73,0,*53
1491663940.71,37262,11.69,73492.3,-5.05,-5.73,-5.69,0,*59
1491663941.96,37263,11.69,73486.8,-5.05,-5.73,-5.69,0,*58
1491663943.2,37264,11.69,73490.5,-5.05,-5.73,-5.73,0,*54
1491663944.44,37265,11.69,73496.5,-5.05,-5.73,-5.73,0,*55
1491663945.68,37266,11.69,73512.3,-5.05,-5.73,-5.73,0,*56
1491663946.93,37267,11.69,73514.8,-5.05,-5.69,-5.73,0,*5C
1491663948.17,37268,11.69,73508.0,-5.05,-5.73,-5.69,0,*53
1491663949.44,37269,11.69,73498.3,-5.07,-5.69,-5.69,0,*5B
1491663950.69,37270,11.69,73514.5,-5.05,-5.73,-5.69,0,*5A
1491663951.93,37271,11.69,73524.5,-5.05,-5.73,-5.69,0,*5B
1491663953.17,37272,11.69,73516.8,-5.05,-5.73,-5.73,0,*53
1491663954.42,37273,11.69,73498.8,-5.05,-5.73,-5.69,0,*59
1491663955.67,37274,11.69,73496.8,-5.05,-5.69,-5.69,0,*55
1491663956.92,37275,11.69,73494.3,-5.05,-5.73,-5.69,0,*5F
1491663958.16,37276,11.69,73480.8,-5.05,-5.73,-5.73,0,*57
1491663959.4,37277,11.69,73480.8,-5.05,-5.73,-5.73,0,*56
1491663960.66,37278,11.69,73498.5,-5.07,-5.73,-5.69,0,*50
1491663961.91,37279,11.69,73474.5,-5.05,-5.73,-5.69,0,*53
1491663963.16,37280,11.69,73460.3,-5.05,-5.69,-5.73,0,*55
1491663964.4,37281,11.69,73458.3,-5.05,-5.73,-5.73,0,*5F
1491663965.66,37282,11.69,73502.5,-5.07,-5.73,-5.69,0,*55
1491663966.91,37283,11.69,73502.3,-5.05,-5.69,-5.73,0,*56
1491663968.15,37284,11.69,73504.0,-5.05,-5.73,-5.69,0,*51
1491663969.39,37285,11.69,73506.8,-5.05,-5.73,-5.73,0,*5B
1491663970.64,37286,11.69,73496.0,-5.05,-5.73,-5.69,0,*53
1491663971.88,37287,11.69,73490.5,-5.05,-5.73,-5.73,0,*59
1491663973.13,37288,11.69,73506.0,-5.05,-5.69,-5.73,0,*5D
1491663974.4,37289,11.69,73516.0,-5.07,-5.69,-5.73,0,*5E
1491663975.65,37290,11.69,73488.0,-5.05,-5.81,-5.69,0,*59
1491663976.89,37291,11.69,73482.5,-5.05,-5.73,-5.69,0,*55
1491663978.14,37292,11.69,73464.8,-5.05,-5.81,-5.73,0,*50
1491663979.38,37293,11.69,73466.8,-5.05,-5.73,-5.73,0,*5C
1491663980.62,37294,11.69,73470.0,-5.05,-5.73,-5.73,0,*5B
1491663981.86,37295,11.69,73456.8,-5.05,-5.73,-5.73,0,*5A
1491663983.14,37296,11.69,73456.5,-5.03,-5.77,-5.69,0,*50
1491663984.4,37297,11.69,73456.0,-5.03,-5.77,-5.77,0,*5E
1491663985.65,37298,11.69,73482.0,-5.05,-5.81,-5.81,0,*57
1491663986.9,37299,11.69,73480.3,-5.05,-5.73,-5.81,0,*5B
1491663988.15,37300,11.69,73480.3,-5.05,-5.81,-5.81,0,*57
1491663989.4,37301,11.69,73498.3,-5.05,-5.81,-5.81,0,*56
1491663990.66,37302,11.69,73516.0,-5.05,-5.81,-5.81,0,*55
1491663991.93,37303,11.69,73492.5,-5.07,-5.81,-5.81,0,*56
1491663993.18,37304,11.69,73468.8,-5.05,-5.81,-5.73,0,*5E
1491663994.42,37305,11.69,73462.0,-5.05,-5.73,-5.81,0,*5F
1491663995.68,37306,11.69,73514.5,-5.07,-5.73,-5.73,0,*53
1491663996.93,37307,11.69,73490.3,-5.05,-5.81,-5.81,0,*50
1491663998.18,37308,11.69,73490.3,-5.05,-5.73,-5.81,0,*52
1491663999.43,37309,11.69,73494.8,-5.05,-5.69,-5.81,0,*58
1491664000.68,37310,11.69,73496.0,-5.05,-5.73,-5.69,0,*5D
1491664001.93,37311,11.69,73498.8,-5.05,-5.85,-5.73,0,*5E
1491664003.19,37312,11.69,73490.3,-5.07,-5.69,-5.73,0,*5D
1491664004.46,37313,11.69,73458.8,-5.07,-5.81,-5.73,0,*5A
1491664005.7,37314,11.69,73454.8,-5.05,-5.73,-5.73,0,*52
1491664006.95,37315,11.69,73446.8,-5.05,-5.81,-5.73,0,*5E
1491664008.19,37316,11.69,73468.5,-5.05,-5.73,-5.73,0,*50
1491664009.45,37317,11.69,73460.0,-5.07,-5.73,-5.73,0,*53
1491664010.7,37318,11.69,73494.0,-5.05,-5.73,-5.81,0,*53
1491664011.95,37319,11.69,73492.8,-5.05,-5.69,-5.73,0,*54
1491664013.19,37320,11.69,73434.8,-5.05,-5.73,-5.73,0,*55
1491664014.43,37321,11.69,73440.3,-5.05,-5.73,-5.73,0,*54
1491664015.69,37322,11.69,73462.5,-5.07,-5.73,-5.81,0,*58
1491664016.94,37323,11.69,73492.5,-5.05,-5.69,-5.73,0,*5D
1491664018.19,37324,11.69,73520.0,-5.05,-5.69,-5.69,0,*51
1491664019.44,37325,11.69,73502.3,-5.05,-5.73,-5.73,0,*50
1491664020.68,37326,11.69,73496.0,-5.05,-5.73,-5.73,0,*53
1491664021.92,37327,11.69,73494.0,-5.05,-5.73,-5.73,0,*52
1491664023.16,37328,11.69,73492.5,-5.05,-5.73,-5.73,0,*5D
1491664024.42,37329,11.69,73490.5,-5.07,-5.73,-5.73,0,*5E
1491664025.66,37330,11.69,73474.5,-5.05,-5.73,-5.73,0,*54
1491664026.91,37331,11.69,73478.5,-5.05,-5.81,-5.69,0,*53
1491664028.16,37332,11.69,73478.3,-5.05,-5.81,-5.73,0,*5B
1491664029.42,37333,11.69,73478.8,-5.07,-5.73,-5.73,0,*55
1491664030.67,37334,11.69,73484.8,-5.05,-5.69,-5.69,0,*50
1491664031.92,37335,11.69,73484.0,-5.05,-5.73,-5.81,0,*5C
1491664033.17,37336,11.69,73488.3,-5.05,-5.81,-5.73,0,*5F
1491664034.43,37337,11.69,73490.0,-5.07,-5.73,-5.73,0,*51
1491664035.7,37338,11.69,73502.5,-5.07,-5.81,-5.73,0,*53
1491664036.96,37339,11.69,73502.3,-5.07,-5.81,-5.73,0,*52
1491664038.23,37340,11.69,73492.3,-5.07,-5.81,-5.73,0,*5C
1491664039.49,37341,11.69,73498.5,-5.07,-5.73,-5.73,0,*50
1491664040.73,37342,11.69,73520.3,-5.05,-5.73,-5.73,0,*51
1491664041.98,37343,11.69,73544.8,-5.05,-5.73,-5.73,0,*50
1491664043.24,37344,11.69,73520.3,-5.07,-5.73,-5.69,0,*5E
1491664044.5,37345,11.69,73504.8,-5.07,-5.73,-5.73,0,*54
1491664045.76,37346,11.69,73480.3,-5.07,-5.73,-5.73,0,*57
1491664047.03,37347,11.69,73490.3,-5.07,-5.73,-5.73,0,*56
1491664048.29,37348,11.69,73482.3,-5.07,-5.73,-5.73,0,*59
1491664049.55,37349,11.69,73476.8,-5.07,-5.73,-5.73,0,*58
1491664050.81,37350,11.69,73476.3,-5.07,-5.73,-5.69,0,*5B
1491664052.06,37351,11.69,73476.8,-5.05,-5.73,-5.73,0,*53
1491664053.3,37352,11.69,73468.5,-5.05,-5.81,-5.73,0,*5D
1491664054.54,37353,11.69,73462.5,-5.05,-5.73,-5.73,0,*51
1491664055.81,37354,11.69,73474.3,-5.07,-5.81,-5.73,0,*59
1491664057.06,37355,11.69,73474.5,-5.05,-5.81,-5.69,0,*51
1491664058.33,37356,11.69,73450.5,-5.07,-5.81,-5.73,0,*5B
1491664059.58,37357,11.69,73484.0,-5.05,-5.81,-5.81,0,*55
1491664060.85,37358,11.69,73502.8,-5.07,-5.73,-5.81,0,*55
1491664062.12,37359,11.69,73488.8,-5.07,-5.81,-5.73,0,*54
1491664063.38,37360,11.69,73490.8,-5.07,-5.73,-5.69,0,*58
1491664064.63,37361,11.69,73496.5,-5.05,-5.73,-5.73,0,*50
1491664065.89,37362,11.69,73492.0,-5.07,-5.73,-5.73,0,*51
1491664067.15,37363,11.69,73496.5,-5.07,-5.73,-5.73,0,*50
1491664068.41,37364,11.69,73510.5,-5.07,-5.73,-5.73,0,*57
1491664069.67,37365,11.69,73498.8,-5.07,-5.73,-5.73,0,*56
1491664070.94,37366,11.69,73496.3,-5.07,-5.81,-5.73,0,*58
1491664072.19,37367,11.69,73492.8,-5.05,-5.81,-5.69,0,*50
1491664073.44,37368,11.69,73490.0,-5.05,-5.81,-5.81,0,*59
1491664074.72,37369,11.69,73484.0,-5.07,-5.81,-5.81,0,*5A
1491664075.97,37370,11.69,73486.5,-5.05,-5.85,-5.73,0,*59
1491664077.24,37371,11.69,73480.5,-5.07,-5.81,-5.85,0,*57
1491664078.5,37372,11.69,73488.3,-5.05,-5.81,-5.81,0,*52
1491664079.77,37373,11.69,73490.0,-5.07,-5.85,-5.81,0,*55
1491664081.02,37374,11.69,73488.3,-5.05,-5.81,-5.81,0,*54
1491664082.3,37375,11.69,73482.5,-5.07,-5.81,-5.81,0,*57
1491664083.57,37376,11.69,73468.3,-5.07,-5.81,-5.85,0,*50
1491664084.84,37377,11.69,73464.8,-5.07,-5.81,-5.81,0,*55
1491664086.11,37378,11.69,73480.5,-5.07,-5.73,-5.81,0,*57
1491664087.39,37379,11.69,73484.8,-5.07,-5.81,-5.85,0,*5F
1491664088.66,37380,11.69,73484.5,-5.07,-5.85,-5.81,0,*59
1491664089.94,37381,11.69,73474.5,-5.07,-5.85,-5.81,0,*58
1491664091.19,37382,11.69,73456.5,-5.09,-5.85,-5.85,0,*51
1491664092.47,37383,11.69,73456.8,-5.07,-5.81,-5.85,0,*5A
1491664093.72,37384,11.69,73464.3,-5.05,-5.73,-5.85,0,*52
1491664094.99,37385,11.69,73488.5,-5.07,-5.81,-5.81,0,*58
1491664096.26,37386,11.69,73496.3,-5.07,-5.81,-5.81,0,*5B
1491664097.54,37387,11.69,73484.8,-5.07,-5.81,-5.81,0,*5A
1491664098.81,37388,11.69,73486.3,-5.07,-5.81,-5.81,0,*55
1491664100.08,37389,11.69,73494.0,-5.07,-5.81,-5.81,0,*54
1491664101.36,37390,11.69,73514.0,-5.07,-5.85,-5.85,0,*5C
1491664102.64,37391,11.69,73482.0,-5.07,-5.85,-5.81,0,*59
1491664103.91,37392,11.69,73448.8,-5.07,-5.81,-5.81,0,*5E
1491664105.16,37393,11.69,73456.5,-5.05,-5.81,-5.81,0,*5D
1491664106.43,37394,11.69,73502.3,-5.07,-5.81,-5.81,0,*58
1491664107.71,37395,11.69,73512.3,-5.07,-5.81,-5.81,0,*59
1491664108.98,37396,11.69,73450.0,-5.07,-5.81,-5.81,0,*5A
1491664110.25,37397,11.69,73490.8,-5.07,-5.81,-5.81,0,*5B
1491664111.52,37398,11.69,73546.8,-5.07,-5.81,-5.81,0,*54
1491664112.8,37399,11.69,73524.0,-5.07,-5.81,-5.81,0,*55
1491664114.07,37400,11.69,73514.5,-5.07,-5.81,-5.81,0,*52
1491664115.34,37401,11.69,73514.3,-5.07,-5.81,-5.81,0,*53
1491664116.61,37402,11.69,73512.0,-5.07,-5.81,-5.81,0,*50
1491664117.89,37403,11.69,73508.8,-5.07,-5.81,-5.81,0,*51
1491664119.16,37404,11.69,73508.5,-5.07,-5.81,-5.81,0,*56